Time,TemperatureF,DewpointF,PressureIn,WindDirection,WindDirectionDegrees,WindSpeedMPH,WindSpeedGustMPH,Humidity,HourlyPrecipIn,Conditions,Clouds,dailyrainin,SoftwareType,DateUTC
2013-01-28 00:00:00,35.3,33.0,29.84,SSW,210,0.0,-999.0,92,-99.99,,,0.00,weatherlink.com 1.10,2013-01-28 07:00:00,
2013-01-28 00:15:00,35.2,33.0,29.84,South,173,0.0,-999.0,92,-99.99,,,0.00,weatherlink.com 1.10,2013-01-28 07:15:00,
2013-01-28 00:30:00,35.1,33.0,29.83,SSW,192,1.0,-999.0,92,-99.99,,,0.00,weatherlink.com 1.10,2013-01-28 07:30:00,
2013-01-28 00:45:00,35.2,33.0,29.82,SW,223,0.0,-999.0,91,-99.99,,,0.00,weatherlink.com 1.10,2013-01-28 07:45:00,
2013-01-28 01:00:00,35.3,33.0,29.81,South,169,1.0,-999.0,91,-99.99,,,0.01,weatherlink.com 1.10,2013-01-28 08:00:00,
2013-01-28 01:15:00,35.0,33.0,29.80,South,187,1.0,-999.0,92,-99.99,,,0.01,weatherlink.com 1.10,2013-01-28 08:15:00,
2013-01-28 01:30:00,34.4,32.0,29.79,WSW,240,2.0,-999.0,92,-99.99,,,0.02,weatherlink.com 1.10,2013-01-28 08:30:00,
2013-01-28 01:45:00,34.1,32.0,29.78,WSW,254,7.0,-999.0,93,-99.99,,,0.02,weatherlink.com 1.10,2013-01-28 08:45:00,
2013-01-28 02:00:00,33.9,32.0,29.78,SW,234,3.0,-999.0,93,-99.99,,,0.03,weatherlink.com 1.10,2013-01-28 09:00:00,
2013-01-28 02:15:00,34.3,33.0,29.79,SW,227,1.0,-999.0,94,-99.99,,,0.04,weatherlink.com 1.10,2013-01-28 09:15:00,
2013-01-28 02:31:00,34.2,33.0,29.79,SSE,161,2.0,-999.0,94,-99.99,,,0.05,weatherlink.com 1.10,2013-01-28 09:31:00,
2013-01-28 02:45:00,34.9,33.0,29.79,SSE,163,6.0,-999.0,94,-99.99,,,0.06,weatherlink.com 1.10,2013-01-28 09:45:00,
2013-01-28 03:00:00,35.0,34.0,29.79,SW,233,3.0,-999.0,94,-99.99,,,0.06,weatherlink.com 1.10,2013-01-28 10:00:00,
2013-01-28 03:15:00,34.8,33.0,29.79,ESE,121,6.0,-999.0,93,-99.99,,,0.07,weatherlink.com 1.10,2013-01-28 10:15:00,
2013-01-28 03:30:00,34.4,33.0,29.77,SW,234,4.0,-999.0,93,-99.99,,,0.07,weatherlink.com 1.10,2013-01-28 10:30:00,
2013-01-28 03:46:00,33.1,31.0,29.79,South,175,5.0,-999.0,93,-99.99,,,0.07,weatherlink.com 1.10,2013-01-28 10:46:00,
2013-01-28 04:00:00,32.6,31.0,29.78,South,174,2.0,-999.0,94,-99.99,,,0.07,weatherlink.com 1.10,2013-01-28 11:00:00,
2013-01-28 04:16:00,32.8,31.0,29.78,West,276,3.0,-999.0,94,-99.99,,,0.07,weatherlink.com 1.10,2013-01-28 11:16:00,
2013-01-28 04:30:00,33.2,32.0,29.78,WSW,254,3.0,-999.0,94,-99.99,,,0.07,weatherlink.com 1.10,2013-01-28 11:30:00,
2013-01-28 04:45:00,33.4,32.0,29.77,SSW,210,3.0,-999.0,94,-99.99,,,0.07,weatherlink.com 1.10,2013-01-28 11:45:00,
2013-01-28 05:01:00,33.4,32.0,29.75,SSE,148,7.0,-999.0,94,-99.99,,,0.07,weatherlink.com 1.10,2013-01-28 12:01:00,
2013-01-28 05:16:00,33.3,32.0,29.74,South,183,4.0,-999.0,93,-99.99,,,0.07,weatherlink.com 1.10,2013-01-28 12:16:00,
2013-01-28 05:31:00,33.3,32.0,29.75,SW,221,5.0,-999.0,93,-99.99,,,0.07,weatherlink.com 1.10,2013-01-28 12:31:00,
2013-01-28 05:46:00,32.6,31.0,29.74,SE,128,1.0,-999.0,93,-99.99,,,0.07,weatherlink.com 1.10,2013-01-28 12:46:00,
2013-01-28 06:01:00,32.2,31.0,29.74,SW,236,1.0,-999.0,94,-99.99,,,0.07,weatherlink.com 1.10,2013-01-28 13:01:00,
2013-01-28 06:16:00,32.0,31.0,29.74,SSE,163,5.0,-999.0,94,-99.99,,,0.07,weatherlink.com 1.10,2013-01-28 13:16:00,
2013-01-28 06:31:00,32.0,31.0,29.75,WSW,245,0.0,-999.0,94,-99.99,,,0.07,weatherlink.com 1.10,2013-01-28 13:31:00,
2013-01-28 06:46:00,32.0,31.0,29.77,WSW,253,0.0,-999.0,94,-99.99,,,0.07,weatherlink.com 1.10,2013-01-28 13:46:00,
2013-01-28 07:01:00,31.2,30.0,29.77,SSW,213,0.0,-999.0,94,-99.99,,,0.07,weatherlink.com 1.10,2013-01-28 14:01:00,
2013-01-28 07:16:00,30.9,29.0,29.78,South,185,0.0,-999.0,94,-99.99,,,0.07,weatherlink.com 1.10,2013-01-28 14:16:00,
2013-01-28 07:31:00,30.7,29.0,29.78,WSW,252,0.0,-999.0,94,-99.99,,,0.07,weatherlink.com 1.10,2013-01-28 14:31:00,
2013-01-28 07:46:00,30.5,29.0,29.79,WSW,254,0.0,-999.0,94,-99.99,,,0.07,weatherlink.com 1.10,2013-01-28 14:46:00,
2013-01-28 08:01:00,30.1,29.0,29.79,SSE,159,0.0,-999.0,94,-99.99,,,0.07,weatherlink.com 1.10,2013-01-28 15:01:00,
2013-01-28 08:16:00,29.8,28.0,29.79,SW,231,0.0,-999.0,93,-99.99,,,0.07,weatherlink.com 1.10,2013-01-28 15:16:00,
2013-01-28 08:31:00,29.7,28.0,29.79,SSW,213,0.0,-999.0,93,-99.99,,,0.07,weatherlink.com 1.10,2013-01-28 15:31:00,
2013-01-28 08:46:00,29.4,27.0,29.79,SW,222,0.0,-999.0,92,-99.99,,,0.07,weatherlink.com 1.10,2013-01-28 15:46:00,
2013-01-28 09:01:00,29.2,28.0,29.80,WSW,249,0.0,-999.0,93,-99.99,,,0.07,weatherlink.com 1.10,2013-01-28 16:01:00,
2013-01-28 09:16:00,29.0,27.0,29.80,WSW,250,0.0,-999.0,93,-99.99,,,0.07,weatherlink.com 1.10,2013-01-28 16:16:00,
2013-01-28 09:31:00,28.4,26.0,29.81,West,259,0.0,-999.0,92,-99.99,,,0.07,weatherlink.com 1.10,2013-01-28 16:31:00,
2013-01-28 09:46:00,28.0,26.0,29.81,WSW,252,0.0,-999.0,92,-99.99,,,0.07,weatherlink.com 1.10,2013-01-28 16:46:00,
2013-01-28 10:01:00,27.6,25.0,29.82,SW,214,0.0,-999.0,91,-99.99,,,0.07,weatherlink.com 1.10,2013-01-28 17:01:00,
2013-01-28 10:16:00,27.4,25.0,29.82,SW,229,0.0,-999.0,90,-99.99,,,0.07,weatherlink.com 1.10,2013-01-28 17:16:00,
2013-01-28 10:31:00,27.6,25.0,29.83,SW,229,0.0,-999.0,89,-99.99,,,0.07,weatherlink.com 1.10,2013-01-28 17:31:00,
2013-01-28 10:46:00,27.2,25.0,29.84,WSW,242,0.0,-999.0,90,-99.99,,,0.07,weatherlink.com 1.10,2013-01-28 17:46:00,
2013-01-28 11:01:00,27.0,25.0,29.84,South,169,0.0,-999.0,91,-99.99,,,0.07,weatherlink.com 1.10,2013-01-28 18:01:00,
2013-01-28 11:16:00,26.9,25.0,29.85,SSW,206,0.0,-999.0,91,-99.99,,,0.07,weatherlink.com 1.10,2013-01-28 18:16:00,
2013-01-28 11:31:00,27.5,26.0,29.85,SE,124,0.0,-999.0,92,-99.99,,,0.07,weatherlink.com 1.10,2013-01-28 18:31:00,
2013-01-28 12:01:00,27.7,26.0,29.84,West,263,0.0,-999.0,91,-99.99,,,0.07,weatherlink.com 1.10,2013-01-28 19:01:00,
2013-01-28 12:16:00,27.2,25.0,29.85,WSW,241,0.0,-999.0,92,-99.99,,,0.07,weatherlink.com 1.10,2013-01-28 19:16:00,
2013-01-28 12:32:00,26.9,25.0,29.84,SW,225,0.0,-999.0,92,-99.99,,,0.07,weatherlink.com 1.10,2013-01-28 19:32:00,
2013-01-28 12:47:00,26.6,25.0,29.84,WNW,296,0.0,-999.0,93,-99.99,,,0.07,weatherlink.com 1.10,2013-01-28 19:47:00,
2013-01-28 13:01:00,27.1,25.0,29.84,WSW,250,0.0,-999.0,93,-99.99,,,0.07,weatherlink.com 1.10,2013-01-28 20:01:00,
2013-01-28 13:16:00,27.5,26.0,29.85,West,265,0.0,-999.0,93,-99.99,,,0.07,weatherlink.com 1.10,2013-01-28 20:16:00,
2013-01-28 13:31:00,28.0,26.0,29.85,South,178,0.0,-999.0,92,-99.99,,,0.07,weatherlink.com 1.10,2013-01-28 20:31:00,
2013-01-28 13:46:00,28.0,26.0,29.85,West,274,0.0,-999.0,91,-99.99,,,0.07,weatherlink.com 1.10,2013-01-28 20:46:00,
2013-01-28 14:01:00,27.9,25.0,29.85,SW,231,0.0,-999.0,90,-99.99,,,0.07,weatherlink.com 1.10,2013-01-28 21:01:00,
2013-01-28 14:17:00,28.1,26.0,29.85,SW,235,0.0,-999.0,90,-99.99,,,0.07,weatherlink.com 1.10,2013-01-28 21:17:00,
2013-01-28 14:32:00,28.6,26.0,29.85,WSW,244,0.0,-999.0,88,-99.99,,,0.07,weatherlink.com 1.10,2013-01-28 21:32:00,
2013-01-28 14:47:00,29.3,26.0,29.86,SW,233,0.0,-999.0,87,-99.99,,,0.07,weatherlink.com 1.10,2013-01-28 21:47:00,
2013-01-28 15:01:00,28.7,26.0,29.87,SSW,198,0.0,-999.0,88,-99.99,,,0.07,weatherlink.com 1.10,2013-01-28 22:01:00,
2013-01-28 15:17:00,28.3,26.0,29.86,SW,236,0.0,-999.0,90,-99.99,,,0.07,weatherlink.com 1.10,2013-01-28 22:17:00,
2013-01-28 15:31:00,28.5,26.0,29.86,South,169,0.0,-999.0,90,-99.99,,,0.07,weatherlink.com 1.10,2013-01-28 22:31:00,
2013-01-28 15:46:00,28.3,26.0,29.86,SW,223,0.0,-999.0,90,-99.99,,,0.07,weatherlink.com 1.10,2013-01-28 22:46:00,
2013-01-28 16:01:00,27.7,25.0,29.88,South,188,0.0,-999.0,90,-99.99,,,0.07,weatherlink.com 1.10,2013-01-28 23:01:00,
2013-01-28 16:16:00,26.4,24.0,29.89,WSW,255,0.0,-999.0,89,-99.99,,,0.07,weatherlink.com 1.10,2013-01-28 23:16:00,
2013-01-28 16:31:00,25.4,23.0,29.89,SW,227,0.0,-999.0,91,-99.99,,,0.07,weatherlink.com 1.10,2013-01-28 23:31:00,
2013-01-28 16:47:00,25.8,24.0,29.89,SW,227,0.0,-999.0,92,-99.99,,,0.07,weatherlink.com 1.10,2013-01-28 23:47:00,
2013-01-28 17:01:00,26.2,25.0,29.89,SW,227,0.0,-999.0,93,-99.99,,,0.07,weatherlink.com 1.10,2013-01-29 00:01:00,
2013-01-28 17:16:00,26.3,24.0,29.90,WSW,244,0.0,-999.0,92,-99.99,,,0.07,weatherlink.com 1.10,2013-01-29 00:16:00,
2013-01-28 17:31:00,26.1,24.0,29.90,WSW,244,0.0,-999.0,91,-99.99,,,0.07,weatherlink.com 1.10,2013-01-29 00:31:00,
2013-01-28 17:47:00,26.1,24.0,29.90,WSW,244,0.0,-999.0,92,-99.99,,,0.07,weatherlink.com 1.10,2013-01-29 00:47:00,
2013-01-28 18:02:00,25.8,24.0,29.91,SW,225,0.0,-999.0,92,-99.99,,,0.07,weatherlink.com 1.10,2013-01-29 01:02:00,
2013-01-28 18:17:00,25.2,23.0,29.91,WSW,257,0.0,-999.0,92,-99.99,,,0.07,weatherlink.com 1.10,2013-01-29 01:17:00,
2013-01-28 18:32:00,25.1,23.0,29.91,WSW,257,0.0,-999.0,92,-99.99,,,0.07,weatherlink.com 1.10,2013-01-29 01:32:00,
2013-01-28 18:47:00,25.2,24.0,29.91,WSW,257,0.0,-999.0,93,-99.99,,,0.07,weatherlink.com 1.10,2013-01-29 01:47:00,
2013-01-28 19:02:00,25.0,23.0,29.92,North,5,0.0,-999.0,92,-99.99,,,0.07,weatherlink.com 1.10,2013-01-29 02:02:00,
2013-01-28 19:17:00,24.3,22.0,29.93,NNW,341,0.0,-999.0,91,-99.99,,,0.07,weatherlink.com 1.10,2013-01-29 02:17:00,
2013-01-28 19:32:00,24.0,22.0,29.94,WSW,244,0.0,-999.0,91,-99.99,,,0.07,weatherlink.com 1.10,2013-01-29 02:32:00,
2013-01-28 19:47:00,23.9,22.0,29.94,WSW,244,0.0,-999.0,91,-99.99,,,0.07,weatherlink.com 1.10,2013-01-29 02:47:00,
2013-01-28 20:02:00,23.9,22.0,29.94,WSW,244,0.0,-999.0,92,-99.99,,,0.07,weatherlink.com 1.10,2013-01-29 03:02:00,
2013-01-28 20:17:00,23.9,22.0,29.95,WSW,244,0.0,-999.0,92,-99.99,,,0.07,weatherlink.com 1.10,2013-01-29 03:17:00,
2013-01-28 20:32:00,23.8,22.0,29.95,WSW,244,0.0,-999.0,92,-99.99,,,0.07,weatherlink.com 1.10,2013-01-29 03:32:00,
2013-01-28 20:47:00,23.7,22.0,29.96,WNW,299,0.0,-999.0,91,-99.99,,,0.07,weatherlink.com 1.10,2013-01-29 03:47:00,
2013-01-28 21:02:00,23.5,21.0,29.96,North,11,0.0,-999.0,89,-99.99,,,0.07,weatherlink.com 1.10,2013-01-29 04:02:00,
2013-01-28 21:17:00,23.2,21.0,29.96,NW,325,0.0,-999.0,89,-99.99,,,0.07,weatherlink.com 1.10,2013-01-29 04:17:00,
2013-01-28 21:32:00,23.0,20.0,29.97,NW,312,0.0,-999.0,88,-99.99,,,0.07,weatherlink.com 1.10,2013-01-29 04:32:00,
2013-01-28 21:47:00,22.6,20.0,29.97,West,280,0.0,-999.0,88,-99.99,,,0.07,weatherlink.com 1.10,2013-01-29 04:47:00,
2013-01-28 22:17:00,22.0,19.0,29.97,West,280,0.0,-999.0,88,-99.99,,,0.07,weatherlink.com 1.10,2013-01-29 05:17:00,
2013-01-28 22:32:00,21.4,19.0,29.98,West,280,0.0,-999.0,89,-99.99,,,0.07,weatherlink.com 1.10,2013-01-29 05:32:00,
2013-01-28 22:47:00,21.0,18.0,29.98,West,280,0.0,-999.0,89,-99.99,,,0.07,weatherlink.com 1.10,2013-01-29 05:47:00,
2013-01-28 23:02:00,20.5,18.0,29.98,West,280,0.0,-999.0,89,-99.99,,,0.07,weatherlink.com 1.10,2013-01-29 06:02:00,
2013-01-28 23:18:00,19.8,17.0,29.99,West,280,0.0,-999.0,89,-99.99,,,0.07,weatherlink.com 1.10,2013-01-29 06:18:00,
2013-01-28 23:33:00,19.1,17.0,29.98,West,280,0.0,-999.0,90,-99.99,,,0.07,weatherlink.com 1.10,2013-01-29 06:33:00,
2013-01-28 23:48:00,18.4,16.0,29.98,West,280,0.0,-999.0,89,-99.99,,,0.07,weatherlink.com 1.10,2013-01-29 06:48:00,